FW5769 Weather Reports


time (UTC)temp
F
wind
direction
speed
knots
gust
knots
rain 1hr
in
rain 24hr
in
rain mn
in
humidity
%
barometer
mb
20260505001537 71 219 0.0 0.0 0.00 0.00 0.00 40 1012.7
20260505000037 72 219 0.0 0.0 0.00 0.00 0.00 40 1012.5
20260504234535 73 219 0.0 0.0 0.00 0.00 0.00 38 1012.3
20260504233041 74 219 0.0 0.0 0.00 0.00 0.00 37 1012.2
20260504231535 74 219 0.0 0.0 0.00 0.00 0.00 36 1012.1
20260504230035 75 219 0.0 3.5 0.00 0.00 0.00 34 1012.1
20260504224534 76 219 0.0 3.5 0.00 0.00 0.00 33 1012.0
20260504223033 76 224 0.0 1.7 0.00 0.00 0.00 37 1012.0
20260504221533 76 225 0.0 3.5 0.00 0.00 0.00 34 1012.1
20260504220031 76 225 0.0 0.9 0.00 0.00 0.00 35 1012.1
20260504214530 76 226 0.0 2.6 0.00 0.00 0.00 34 1012.2
20260504213028 77 230 0.0 0.9 0.00 0.00 0.00 34 1012.2
20260504211527 77 234 0.0 3.5 0.00 0.00 0.00 31 1012.2
20260504210026 77 236 0.0 3.5 0.00 0.00 0.00 33 1012.3
20260504204523 77 251 0.0 2.6 0.00 0.00 0.00 34 1012.5
20260504203022 76 253 0.0 4.3 0.00 0.00 0.00 37 1012.6
20260504201518 76 255 0.0 3.5 0.00 0.00 0.00 36 1012.8
20260504200033 76 260 0.0 3.5 0.00 0.00 0.00 35 1013.1
20260504194514 75 260 0.0 1.7 0.00 0.00 0.00 39 1013.2
20260504193013 75 260 0.0 1.7 0.00 0.00 0.00 38 1013.3
20260504191522 74 260 0.0 1.7 0.00 0.00 0.00 38 1013.5
20260504190010 74 270 0.0 1.7 0.00 0.00 0.00 39 1013.8
20260504184511 73 270 0.0 0.0 0.00 0.00 0.00 41 1014.1
20260504183000 72 270 0.0 1.7 0.00 0.00 0.00 51 1014.3
20260504181559 71 270 0.0 1.7 0.00 0.00 0.00 52 1014.5
20260504180058 72 270 0.0 0.9 0.00 0.00 0.00 41 1014.5
20260504174606 72 270 0.0 1.7 0.00 0.00 0.00 40 1014.6
20260504173102 71 270 0.0 4.3 0.00 0.00 0.00 42 1014.5
20260504171552 71 270 0.0 4.3 0.00 0.00 0.00 43 1014.9
20260504100103 50 270 0.0 0.0 0.00 0.00 0.00 79 1015.8
20260504081547 53 270 0.0 0.0 0.00 0.00 0.00 74 1015.6
20260504050021 58 270 0.0 0.9 0.00 0.00 0.00 60 1015.8
20260504044530 58 270 0.0 1.7 0.00 0.00 0.00 59 1015.5
20260504043019 58 270 0.0 2.6 0.00 0.00 0.00 59 1015.8
20260504041519 58 270 0.0 0.9 0.00 0.00 0.00 59 1015.8
20260504040015 58 270 0.0 0.0 0.00 0.00 0.00 58 1016.0
20260504034513 59 270 0.0 0.0 0.00 0.00 0.00 57 1016.0
20260504033013 59 270 0.0 0.9 0.00 0.00 0.00 56 1016.1
20260504031513 59 270 0.0 0.0 0.00 0.00 0.00 55 1016.1
20260504030030 60 270 0.0 0.9 0.00 0.00 0.00 53 1016.1
20260504024512 60 275 0.0 0.9 0.00 0.00 0.00 52 1016.1
20260504023011 61 275 0.0 1.7 0.00 0.00 0.00 52 1015.9
20260504021510 61 275 0.0 0.0 0.00 0.00 0.00 50 1015.7
20260504020010 61 275 0.0 0.0 0.00 0.00 0.00 49 1015.4
20260504014524 61 275 0.0 0.0 0.00 0.00 0.00 48 1015.2
20260504013009 61 275 0.0 0.9 0.00 0.00 0.00 47 1015.0
20260504011508 61 275 0.0 0.9 0.00 0.00 0.00 46 1014.9
20260504010009 61 275 0.0 0.9 0.00 0.00 0.00 45 1014.8
20260504004511 61 275 0.0 0.0 0.00 0.00 0.00 45 1014.7
20260504003017 62 275 0.0 0.0 0.00 0.00 0.00 44 1014.8